Radiation Dose at Monitoring Post of Fukushima Daini Nuclear Power Station
Date,Time,MP-1(microSv/h),MP-2(microSv/h),MP-3(microSv/h),MP-4(microSv/h),MP-5(microSv/h),MP-6(microSv/h),MP-7(microSv/h),Wind Direction,Wind Velocity(m/s),Rain
2015/06/10,00:00,0.503,0.293,0.527,0.472,0.456,0.241,0.212,west-northwest,2.9,No
2015/06/10,00:10,0.506,0.293,0.531,0.477,0.462,0.240,0.210,west-northwest,4.4,No
2015/06/10,00:20,0.503,0.292,0.525,0.473,0.455,0.239,0.211,northwest,5.3,No
2015/06/10,00:30,0.503,0.291,0.531,0.476,0.461,0.240,0.212,northwest,6.1,No
2015/06/10,00:40,0.505,0.292,0.525,0.471,0.456,0.239,0.211,northwest,3.7,No
2015/06/10,00:50,0.503,0.294,0.531,0.477,0.461,0.242,0.211,northwest,5.2,No
2015/06/10,01:00,0.505,0.293,0.526,0.473,0.456,0.239,0.210,west-northwest,5.4,No
2015/06/10,01:10,0.500,0.294,0.530,0.476,0.460,0.240,0.210,west-northwest,4.3,No
2015/06/10,01:20,0.505,0.292,0.525,0.472,0.456,0.240,0.211,west-northwest,4.1,No
2015/06/10,01:30,0.503,0.293,0.529,0.475,0.460,0.241,0.212,west-northwest,3.7,No
2015/06/10,01:40,0.506,0.292,0.527,0.472,0.458,0.241,0.211,west-northwest,3.3,No
2015/06/10,01:50,0.502,0.294,0.529,0.476,0.460,0.241,0.211,west,2.7,No
2015/06/10,02:00,0.507,0.292,0.526,0.472,0.458,0.241,0.210,west-northwest,2.8,No
2015/06/10,02:10,0.500,0.295,0.528,0.478,0.459,0.239,0.211,north-northwest,2.2,No
2015/06/10,02:20,0.507,0.291,0.527,0.473,0.459,0.241,0.212,north-northwest,2.5,No
2015/06/10,02:30,0.501,0.294,0.528,0.477,0.459,0.240,0.211,northwest,2.5,No
2015/06/10,02:40,0.506,0.291,0.530,0.473,0.459,0.240,0.210,north-northwest,2.9,No
2015/06/10,02:50,0.501,0.295,0.528,0.474,0.460,0.239,0.211,north-northwest,3.5,No
2015/06/10,03:00,0.507,0.293,0.531,0.475,0.458,0.240,0.212,north-northwest,4.1,No
2015/06/10,03:10,0.504,0.294,0.529,0.478,0.459,0.239,0.210,north-northwest,3.9,No
2015/06/10,03:20,0.506,0.292,0.528,0.473,0.460,0.241,0.210,north,4.0,No
2015/06/10,03:30,0.501,0.293,0.527,0.476,0.460,0.240,0.211,north-northwest,4.0,No
2015/06/10,03:40,0.504,0.292,0.530,0.474,0.457,0.240,0.211,north-northwest,4.0,No
2015/06/10,03:50,0.502,0.294,0.528,0.476,0.459,0.241,0.211,northwest,5.1,No
2015/06/10,04:00,0.506,0.293,0.529,0.473,0.457,0.239,0.210,north-northwest,5.9,No
2015/06/10,04:10,0.502,0.293,0.527,0.475,0.460,0.241,0.210,northwest,6.4,No
2015/06/10,04:20,0.504,0.294,0.529,0.473,0.458,0.240,0.211,northwest,6.9,No
2015/06/10,04:30,0.503,0.291,0.527,0.476,0.462,0.240,0.211,northwest,6.5,No
2015/06/10,04:40,0.505,0.293,0.531,0.471,0.456,0.239,0.211,northwest,5.3,No
2015/06/10,04:50,0.505,0.293,0.525,0.475,0.460,0.241,0.211,northwest,4.7,No
2015/06/10,05:00,0.506,0.295,0.530,0.473,0.457,0.240,0.211,northwest,4.8,No
2015/06/10,05:10,0.504,0.293,0.527,0.476,0.460,0.241,0.211,west-northwest,5.6,No
2015/06/10,05:20,0.503,0.292,0.529,0.473,0.459,0.240,0.211,northwest,4.6,No
2015/06/10,05:30,0.506,0.292,0.524,0.476,0.456,0.241,0.209,northwest,4.2,No
2015/06/10,05:40,0.502,0.291,0.529,0.471,0.460,0.239,0.212,northwest,3.3,No
2015/06/10,05:50,0.507,0.293,0.526,0.478,0.454,0.240,0.211,west-northwest,4.4,No
2015/06/10,06:00,0.501,0.292,0.530,0.474,0.456,0.240,0.209,northwest,4.2,No
2015/06/10,06:10,0.506,0.291,0.527,0.473,0.460,0.239,0.211,west-northwest,4.0,No
2015/06/10,06:20,0.503,0.294,0.525,0.476,0.455,0.238,0.211,west-northwest,4.3,No
2015/06/10,06:30,0.503,0.293,0.530,0.472,0.456,0.239,0.208,west-northwest,5.1,No
2015/06/10,06:40,0.505,0.290,0.523,0.475,0.459,0.241,0.210,west-northwest,6.3,No
2015/06/10,06:50,0.501,0.295,0.531,0.472,0.453,0.238,0.210,west-northwest,3.4,No
2015/06/10,07:00,0.507,0.295,0.526,0.474,0.460,0.240,0.209,northwest,4.7,No
2015/06/10,07:10,0.506,0.292,0.522,0.475,0.459,0.239,0.208,northwest,6.2,No
2015/06/10,07:20,0.500,0.289,0.528,0.470,0.453,0.240,0.208,west-northwest,4.5,No
2015/06/10,07:30,0.508,0.292,0.530,0.470,0.460,0.240,0.208,northwest,4.7,No
2015/06/10,07:40,0.504,0.296,0.526,0.477,0.458,0.239,0.209,west-northwest,6.7,No
2015/06/10,07:50,0.502,0.293,0.522,0.474,0.456,0.239,0.207,west-northwest,5.6,No
2015/06/10,08:00,0.504,0.292,0.522,0.470,0.457,0.238,0.209,west-northwest,7.0,No
2015/06/10,08:10,0.508,0.292,0.520,0.469,0.464,0.240,0.209,west,8.8,No
2015/06/10,08:20,0.506,0.290,0.523,0.468,0.458,0.242,0.210,west-northwest,5.9,No
2015/06/10,08:30,0.502,0.292,0.533,0.469,0.455,0.240,0.211,west,5.3,No
2015/06/10,08:40,0.507,0.292,0.531,0.468,0.454,0.240,0.210,west,4.7,No
2015/06/10,08:50,0.508,0.291,0.529,0.472,0.453,0.240,0.211,west,5.7,No
2015/06/10,09:00,0.507,0.292,0.526,0.474,0.462,0.240,0.211,west-northwest,4.6,No
2015/06/10,09:10,0.503,0.293,0.525,0.474,0.462,0.240,0.211,west-northwest,5.8,No
2015/06/10,09:20,0.503,0.293,0.525,0.476,0.460,0.240,0.211,west-northwest,6.1,No
2015/06/10,09:30,0.502,0.292,0.527,0.477,0.459,0.238,0.212,northwest,3.8,No
2015/06/10,09:40,0.502,0.291,0.534,0.476,0.459,0.239,0.212,west,5.6,No
2015/06/10,09:50,0.501,0.293,0.533,0.476,0.457,-,0.213,west-northwest,5.9,No
2015/06/10,10:00,0.502,0.294,0.530,0.476,0.458,-,0.213,west-northwest,5.3,No
2015/06/10,10:10,0.505,0.294,0.529,0.476,0.457,-,0.213,west,4.9,No
2015/06/10,10:20,0.503,0.294,0.527,0.477,0.458,-,0.214,northwest,4.5,No
2015/06/10,10:30,0.505,0.294,0.529,0.478,0.457,-,0.213,west,5.1,No
2015/06/10,10:40,0.506,0.294,0.530,0.478,0.460,-,0.213,west-northwest,6.1,No
2015/06/10,10:50,0.505,0.293,0.530,0.480,0.460,-,0.213,west-northwest,6.1,No
2015/06/10,11:00,0.505,0.294,0.531,0.480,0.459,-,0.214,northwest,4.4,No
2015/06/10,11:10,0.505,0.296,0.529,0.479,0.459,-,0.214,west-northwest,5.8,No
2015/06/10,11:20,0.506,0.295,0.533,0.480,0.460,-,0.214,west-northwest,5.0,No
2015/06/10,11:30,0.509,0.295,0.533,0.479,0.462,-,0.215,west-northwest,4.0,No
2015/06/10,11:40,0.509,0.296,0.531,0.479,0.463,-,0.215,west-northwest,4.8,No
2015/06/10,11:50,0.509,0.296,0.534,0.482,0.462,-,0.215,northwest,2.9,No
2015/06/10,12:00,0.508,0.295,0.534,0.481,0.463,-,0.214,northwest,1.9,No
2015/06/10,12:10,0.507,0.296,0.533,0.481,0.463,-,0.215,west,1.4,No
2015/06/10,12:20,0.509,0.295,0.534,0.482,0.463,-,0.213,southeast,2.6,No
2015/06/10,12:30,0.508,0.296,0.533,0.483,0.463,-,0.214,south-southeast,3.9,No
2015/06/10,12:40,0.508,0.295,0.533,0.483,0.464,-,0.213,south-southeast,4.1,No
2015/06/10,12:50,0.513,0.294,0.532,0.479,0.463,-,0.213,south-southeast,5.1,No
2015/06/10,13:00,0.514,0.294,0.529,0.479,0.461,-,0.214,southeast,4.6,No
2015/06/10,13:10,0.511,0.294,0.531,0.477,0.461,-,0.212,southeast,4.5,No
2015/06/10,13:20,0.508,0.295,0.529,0.476,0.460,-,0.213,southeast,4.6,No
2015/06/10,13:30,0.507,0.294,0.530,0.477,0.461,-,0.212,southeast,4.5,No
2015/06/10,13:40,0.508,0.293,0.530,0.475,0.462,-,0.211,south-southeast,5.0,No
2015/06/10,13:50,0.515,0.296,0.532,0.477,0.461,-,0.213,south-southeast,5.4,No
2015/06/10,14:00,0.514,0.299,0.530,0.474,0.460,-,0.213,south-southeast,5.1,No
2015/06/10,14:10,0.509,0.296,0.530,0.476,0.459,-,0.216,south-southeast,5.7,No
2015/06/10,14:20,0.508,0.295,0.532,0.476,0.461,-,0.215,south-southeast,6.2,No
2015/06/10,14:30,0.507,0.294,0.531,0.477,0.460,-,0.213,south,5.0,No
2015/06/10,14:40,0.507,0.295,0.532,0.476,0.460,-,0.214,south,5.4,No
2015/06/10,14:50,0.506,0.293,0.534,0.478,0.461,-,0.214,south,5.2,No
2015/06/10,15:00,0.516,0.294,0.535,0.484,0.464,0.239,0.212,south,5.3,No
2015/06/10,15:10,0.513,0.294,0.535,0.486,0.466,0.240,0.213,south,4.9,No
2015/06/10,15:20,0.512,0.294,0.535,0.483,0.464,0.241,0.213,south,5.3,No
2015/06/10,15:30,0.508,0.295,0.534,0.479,0.462,0.241,0.214,south,4.6,No
2015/06/10,15:40,0.513,0.294,0.533,0.480,0.464,0.241,0.216,south,5.3,No
2015/06/10,15:50,0.516,0.294,0.536,0.488,0.465,0.241,0.216,south,5.3,No
2015/06/10,16:00,0.512,0.300,0.532,0.484,0.462,0.241,0.215,south,5.6,No
2015/06/10,16:10,0.510,0.298,0.532,0.480,0.464,0.241,0.215,south,4.9,No
2015/06/10,16:20,0.506,0.297,0.538,0.477,0.464,0.240,0.216,south,5.7,No
2015/06/10,16:30,0.514,0.296,0.539,0.485,0.463,0.241,0.215,south,5.6,No
2015/06/10,16:40,0.515,0.300,0.539,0.483,0.463,0.241,0.215,south,6.3,No
2015/06/10,16:50,0.512,0.298,0.533,0.480,0.463,0.241,0.217,south,5.2,No
2015/06/10,17:00,0.507,0.296,0.539,0.478,0.462,0.242,0.216,south,6.1,No
2015/06/10,17:10,0.508,0.298,0.540,0.487,0.463,0.242,0.215,south,5.6,No
2015/06/10,17:20,0.517,0.299,0.536,0.483,0.463,0.240,0.216,south,5.4,No
2015/06/10,17:30,0.515,0.297,0.530,0.480,0.461,0.241,0.214,south,5.6,No
2015/06/10,17:40,0.511,0.299,0.540,0.484,0.462,0.241,0.216,south,6.0,No
2015/06/10,17:50,0.517,0.298,0.539,0.486,0.460,0.241,0.215,south-southwest,5.5,No
2015/06/10,18:00,0.513,0.295,0.534,0.480,0.460,0.241,0.215,south-southwest,4.8,No
2015/06/10,18:10,0.509,0.298,0.535,0.483,0.458,0.242,0.216,south-southwest,4.2,No
2015/06/10,18:20,0.514,0.297,0.542,0.486,0.471,0.241,0.215,south,4.2,No
2015/06/10,18:30,0.513,0.296,0.536,0.480,0.469,0.240,0.216,south,3.6,No
2015/06/10,18:40,0.509,0.299,0.534,0.483,0.463,0.242,0.216,south-southwest,3.4,No
2015/06/10,18:50,0.515,0.295,0.541,0.487,0.468,0.241,0.214,south,3.1,No
2015/06/10,19:00,0.515,0.297,0.538,0.481,0.468,0.241,0.217,south,3.8,No
2015/06/10,19:10,0.510,0.297,0.534,0.485,0.462,0.240,0.213,south,3.5,No
2015/06/10,19:20,0.516,0.297,0.542,0.484,0.471,0.242,0.215,south,4.0,No
2015/06/10,19:30,0.511,0.298,0.535,0.480,0.466,0.241,0.215,south-southwest,2.7,No
2015/06/10,19:40,0.514,0.296,0.536,0.487,0.465,0.241,0.215,south-southwest,2.2,No
2015/06/10,19:50,0.514,0.298,0.540,0.482,0.470,0.241,0.215,southwest,1.0,No
2015/06/10,20:00,0.512,0.297,0.533,0.487,0.464,0.242,0.216,west,0.9,No
2015/06/10,20:10,0.516,0.299,0.541,0.485,0.469,0.243,0.216,-,CALM,No
2015/06/10,20:20,0.511,0.295,0.536,0.482,0.463,0.241,0.215,-,CALM,No
2015/06/10,20:30,0.515,0.297,0.540,0.486,0.469,0.242,0.216,north,0.7,No
2015/06/10,20:40,0.511,0.297,0.540,0.482,0.466,0.242,0.217,north-northeast,1.9,No
2015/06/10,20:50,0.512,0.298,0.537,0.488,0.465,0.242,0.215,north-northeast,2.5,No
2015/06/10,21:00,0.514,0.296,0.541,0.481,0.467,0.240,0.215,north-northeast,1.5,No
2015/06/10,21:10,0.512,0.297,0.535,0.487,0.463,0.243,0.215,north-northeast,1.6,No
2015/06/10,21:20,0.516,0.298,0.540,0.484,0.468,0.241,0.216,north-northeast,1.4,No
2015/06/10,21:30,0.511,0.299,0.538,0.486,0.464,0.244,0.217,north,1.5,No
2015/06/10,21:40,0.516,0.298,0.539,0.485,0.469,0.243,0.217,north-northwest,0.7,No
2015/06/10,21:50,0.510,0.297,0.540,0.487,0.465,0.242,0.217,west-northwest,0.9,No
2015/06/10,22:00,0.516,0.299,0.537,0.486,0.470,0.242,0.216,west,1.4,No
2015/06/10,22:10,0.513,0.298,0.541,0.484,0.462,0.243,0.217,-,CALM,No
2015/06/10,22:20,0.514,0.298,0.536,0.487,0.468,0.242,0.216,south-southwest,1.0,No
2015/06/10,22:30,0.513,0.298,0.541,0.483,0.463,0.242,0.216,south-southwest,0.7,No
2015/06/10,22:40,0.514,0.298,0.534,0.487,0.468,0.242,0.216,southwest,1.4,No
2015/06/10,22:50,0.515,0.298,0.541,0.482,0.467,0.243,0.217,south-southwest,0.7,No
2015/06/10,23:00,0.512,0.297,0.537,0.487,0.465,0.242,0.216,-,CALM,No
2015/06/10,23:10,0.517,0.297,0.539,0.483,0.466,0.242,0.217,-,CALM,No
2015/06/10,23:20,0.512,0.297,0.538,0.487,0.464,0.242,0.216,-,CALM,No
2015/06/10,23:30,0.518,0.299,0.536,0.482,0.468,0.242,0.218,west,0.5,No
2015/06/10,23:40,0.511,0.298,0.537,0.488,0.462,0.242,0.215,west,0.6,No
2015/06/10,23:50,0.517,0.296,0.537,0.483,0.466,0.243,0.216,northwest,0.7,No
